Flag for Chile Weather past 2 weeks in Santiago, Chile

Now
82 °F

Passing clouds.


Feels Like: 81 °F
Forecast: 55 / 82 °F
Wind: 8 mph from South

Location: Pudahuel

Current Time: Mar 28, 2015 at 3:00:16 PM

Latest Report: Mar 28, 2015 at 2:00 PM


Visibility: N/A

Pressure: 30.09 "Hg

Humidity: 26%

Dew point: 45 °F

Location of SantiagoLocation

Historic Weather in Santiago — Graph

°F

Santiago temperature yesterday

Maximum temperature yesterday: 82 °F (at 3:00 PM)
Minimum temperature yesterday: 52 °F (at 8:00 AM)
Average temperature yesterday: 68 °F

Past Weeks' High & Low Weather Summary

 TemperatureHumidityPressure
High97 °F (Mar 20, 3:00 PM)88% (Mar 22, 9:00 AM)30.12 "Hg (Mar 22, 9:00 AM)
Low52 °F (Mar 17, 8:00 AM)11% (Mar 15, 5:00 PM)29.80 "Hg (Mar 15, 6:00 PM)
Average70 °F49%29.97 "Hg
* Reported Mar 13 2:00 PM — Mar 28 2:00 PM, Santiago, Weather by CustomWeather, © 2015

Note: Actual official high and low records may vary slightly from our data, if they occured in-between our weather recording intervals... More about our weather records

Advertising

Santiago weather history for previous 24 hours

 ConditionsComfort  
Time TempWeatherWind HumidityBarometerVisibility
2:00 PM
Sat, Mar 28
82 °FPassing clouds.8 mph26%30.09 "HgN/A
1:00 PM79 °FPassing clouds.3 mph32%30.09 "HgN/A
12:00 PM73 °FSunny.2 mph41%30.12 "Hg10 mi
11:00 AM70 °FSunny.2 mph46%30.12 "Hg10 mi
10:00 AM64 °FSunny.1 mph60%30.12 "Hg5 mi
9:00 AM57 °FSunny.No wind72%30.12 "Hg5 mi
8:00 AM54 °FSunny.3 mph77%30.09 "Hg4 mi
7:00 AM55 °FSunny.2 mph77%30.09 "Hg10 mi
6:00 AM57 °FClear.2 mph72%30.07 "Hg10 mi
5:00 AM57 °FPassing clouds.3 mph67%30.07 "HgN/A
4:00 AM59 °FClear.1 mph63%30.07 "Hg10 mi
3:00 AM61 °FClear.1 mph63%30.09 "Hg10 mi
2:00 AM63 °FClear.No wind56%30.09 "Hg10 mi
1:00 AM68 °FClear.6 mph46%30.09 "Hg10 mi
12:00 AM66 °FClear.8 mph49%30.09 "Hg10 mi
11:00 PM
Fri, Mar 27
72 °FClear.7 mph44%30.09 "Hg10 mi
10:00 PM73 °FPassing clouds.8 mph41%30.09 "HgN/A
9:00 PM73 °FClear.12 mph38%30.07 "Hg10 mi
8:00 PM75 °FClear.16 mph39%30.04 "Hg10 mi
7:00 PM81 °FPassing clouds.15 mph34%30.01 "HgN/A
6:00 PM82 °FPassing clouds.13 mph28%30.01 "HgN/A
5:00 PM82 °FPassing clouds.15 mph28%30.01 "HgN/A
4:00 PM82 °FPassing clouds.13 mph28%30.01 "HgN/A
3:00 PM82 °FPassing clouds.12 mph28%30.04 "HgN/A
Weather by CustomWeather, © 2015

See weather overviewHow to use our weather pages